• In Hungary
  • List of Countries
  • For 7 days
  • Water Temperature
  • Satellite Maps
  • Weather Map
  • News
  • Weather Widgets
  • user-avatar
    Login

    Hourly Weather Suuk-Chishma

    Today, 23 June, Saturday

    Time Temperature Precipitation Wind Pressure Humidity
    00:00 +14°C° 0 mm 3 mps 742 mmHg 94%
    01:00 +14°C° 0 mm 2 mps 742 mmHg 95%
    02:00 +14°C° 0 mm 2 mps 742 mmHg 95%
    03:00 +14°C° 0 mm 2 mps 742 mmHg 95%
    04:00 +13°C° 0 mm 2 mps 743 mmHg 95%
    05:00 +14°C° 0 mm 3 mps 743 mmHg 93%
    06:00 +16°C° 0 mm 3 mps 743 mmHg 91%
    07:00 +17°C° 0 mm 3 mps 744 mmHg 89%
    08:00 +18°C° 0 mm 3 mps 744 mmHg 85%
    09:00 +20°C° 0 mm 4 mps 744 mmHg 81%
    10:00 +21°C° 0 mm 4 mps 744 mmHg 77%
    11:00 +22°C° 0.2 mm 5 mps 744 mmHg 74%
    12:00 +22°C° 0.2 mm 5 mps 744 mmHg 72%
    13:00 +23°C° 0.2 mm 6 mps 744 mmHg 69%
    14:00 +23°C° 0.1 mm 6 mps 744 mmHg 69%
    15:00 +23°C° 0.1 mm 6 mps 744 mmHg 68%
    16:00 +23°C° 0.1 mm 6 mps 744 mmHg 67%
    17:00 +23°C° 0 mm 5 mps 744 mmHg 71%
    18:00 +22°C° 0 mm 4 mps 744 mmHg 75%
    19:00 +22°C° 0 mm 3 mps 744 mmHg 78%
    20:00 +20°C° 0 mm 3 mps 744 mmHg 82%
    21:00 +18°C° 0 mm 3 mps 745 mmHg 86%
    22:00 +17°C° 0 mm 2 mps 745 mmHg 89%
    23:00 +16°C° 0 mm 2 mps 745 mmHg 89%

    Tomorrow, 24 June, Sunday

    Time Temperature Precipitation Wind Pressure Humidity
    00:00 +16°C° 0 mm 2 mps 745 mmHg 90%
    01:00 +15°C° 0 mm 2 mps 745 mmHg 90%
    02:00 +15°C° 0 mm 2 mps 745 mmHg 90%
    03:00 +15°C° 0 mm 2 mps 746 mmHg 90%
    04:00 +14°C° 0 mm 2 mps 746 mmHg 90%
    05:00 +16°C° 0 mm 2 mps 746 mmHg 88%
    06:00 +17°C° 0 mm 2 mps 746 mmHg 85%
    07:00 +19°C° 0 mm 2 mps 746 mmHg 82%
    08:00 +20°C° 0 mm 2 mps 746 mmHg 78%
    09:00 +23°C° 0 mm 2 mps 746 mmHg 74%
    10:00 +25°C° 0 mm 3 mps 746 mmHg 69%
    11:00 +26°C° 0 mm 3 mps 746 mmHg 66%
    12:00 +26°C° 0 mm 3 mps 746 mmHg 64%
    13:00 +27°C° 0 mm 4 mps 746 mmHg 61%
    14:00 +27°C° 0.1 mm 4 mps 746 mmHg 62%
    15:00 +27°C° 0.1 mm 4 mps 746 mmHg 64%
    16:00 +27°C° 0.1 mm 4 mps 746 mmHg 66%
    17:00 +27°C° 0.1 mm 3 mps 747 mmHg 70%
    18:00 +26°C° 0.1 mm 3 mps 747 mmHg 75%
    19:00 +25°C° 0.1 mm 2 mps 747 mmHg 79%
    20:00 +24°C° 0 mm 2 mps 747 mmHg 82%
    21:00 +21°C° 0 mm 2 mps 747 mmHg 86%
    22:00 +21°C° 0 mm 1 mps 748 mmHg 89%
    23:00 +20°C° 0 mm 1 mps 748 mmHg 89%

    Day after tomorrow, 25 June, Monday

    Time Temperature Precipitation Wind Pressure Humidity
    00:00 +20°C° 0 mm 1 mps 748 mmHg 89%
    01:00 +19°C° 0 mm 1 mps 748 mmHg 90%
    02:00 +17°C° 0 mm 0 mps 748 mmHg 90%
    03:00 +16°C° 0 mm 0 mps 749 mmHg 90%
    04:00 +16°C° 0 mm 0 mps 749 mmHg 90%
    05:00 +17°C° 0 mm 0 mps 749 mmHg 88%
    06:00 +19°C° 0 mm 0 mps 749 mmHg 85%
    07:00 +20°C° 0 mm 0 mps 749 mmHg 82%
    08:00 +22°C° 0 mm 0 mps 749 mmHg 77%
    09:00 +25°C° 0 mm 1 mps 749 mmHg 72%
    10:00 +27°C° 0 mm 1 mps 749 mmHg 68%
    11:00 +28°C° 0 mm 1 mps 749 mmHg 63%
    12:00 +28°C° 0 mm 2 mps 749 mmHg 59%
    13:00 +29°C° 0 mm 2 mps 749 mmHg 55%
    14:00 +29°C° 0 mm 2 mps 749 mmHg 57%
    15:00 +29°C° 0 mm 3 mps 749 mmHg 58%
    16:00 +30°C° 0 mm 3 mps 748 mmHg 60%
    17:00 +29°C° 0.2 mm 3 mps 748 mmHg 66%
    18:00 +28°C° 0.2 mm 3 mps 748 mmHg 72%
    19:00 +27°C° 0.2 mm 2 mps 748 mmHg 79%
    20:00 +26°C° 0.5 mm 2 mps 748 mmHg 82%
    21:00 +24°C° 0.5 mm 2 mps 748 mmHg 85%
    22:00 +23°C° 0.5 mm 2 mps 748 mmHg 89%
    23:00 +21°C° 0 mm 2 mps 748 mmHg 90%

    26 June, Tuesday

    Time Temperature Precipitation Wind Pressure Humidity
    00:00 +22°C° 0 mm 1 mps 748 mmHg 90%
    01:00 +21°C° 0 mm 1 mps 748 mmHg 91%
    02:00 +21°C° 0 mm 1 mps 748 mmHg 92%
    03:00 +21°C° 0 mm 1 mps 748 mmHg 92%
    04:00 +20°C° 0 mm 1 mps 748 mmHg 93%
    05:00 +21°C° 0 mm 1 mps 748 mmHg 91%
    06:00 +23°C° 0 mm 1 mps 748 mmHg 89%
    07:00 +24°C° 0 mm 2 mps 748 mmHg 86%
    08:00 +25°C° 0.2 mm 2 mps 748 mmHg 80%
    09:00 +26°C° 0.2 mm 2 mps 748 mmHg 74%
    10:00 +28°C° 0.2 mm 2 mps 748 mmHg 67%
    11:00 +28°C° 0 mm 3 mps 748 mmHg 63%
    12:00 +29°C° 0 mm 3 mps 748 mmHg 59%
    13:00 +30°C° 0 mm 3 mps 748 mmHg 55%
    14:00 +30°C° 0 mm 3 mps 747 mmHg 55%
    15:00 +30°C° 0 mm 3 mps 747 mmHg 55%
    16:00 +30°C° 0 mm 3 mps 747 mmHg 55%
    17:00 +29°C° 0 mm 3 mps 747 mmHg 59%
    18:00 +27°C° 0 mm 3 mps 747 mmHg 64%
    19:00 +26°C° 0 mm 2 mps 747 mmHg 68%
    20:00 +25°C° 0 mm 2 mps 747 mmHg 70%
    21:00 +23°C° 0 mm 2 mps 747 mmHg 72%
    22:00 +20°C° 0 mm 2 mps 747 mmHg 74%
    23:00 +20°C° 0 mm 1 mps 747 mmHg 76%

    27 June, Wednesday

    Time Temperature Precipitation Wind Pressure Humidity
    00:00 +20°C° 0 mm 1 mps 747 mmHg 77%
    01:00 +19°C° 0 mm 1 mps 747 mmHg 79%
    02:00 +19°C° 0 mm 1 mps 747 mmHg 80%
    03:00 +18°C° 0 mm 1 mps 747 mmHg 81%
    04:00 +18°C° 0 mm 1 mps 747 mmHg 81%
    05:00 +19°C° 0 mm 1 mps 747 mmHg 79%
    06:00 +21°C° 0 mm 1 mps 747 mmHg 76%
    07:00 +22°C° 0 mm 1 mps 747 mmHg 74%
    08:00 +24°C° 0 mm 2 mps 747 mmHg 70%
    09:00 +25°C° 0 mm 2 mps 747 mmHg 66%
    10:00 +27°C° 0 mm 2 mps 747 mmHg 62%
    11:00 +28°C° 0.1 mm 3 mps 747 mmHg 61%
    12:00 +29°C° 0.1 mm 3 mps 746 mmHg 60%
    13:00 +29°C° 0.1 mm 4 mps 746 mmHg 60%
    14:00 +29°C° 0.1 mm 4 mps 746 mmHg 61%
    15:00 +30°C° 0.1 mm 4 mps 746 mmHg 62%
    16:00 +30°C° 0.1 mm 5 mps 746 mmHg 64%
    17:00 +29°C° 0.1 mm 4 mps 746 mmHg 69%
    18:00 +28°C° 0.1 mm 4 mps 745 mmHg 73%
    19:00 +27°C° 0.1 mm 4 mps 745 mmHg 78%
    20:00 +25°C° 0 mm 3 mps 745 mmHg 81%
    21:00 +24°C° 0 mm 3 mps 746 mmHg 83%
    22:00 +21°C° 0 mm 3 mps 746 mmHg 86%
    23:00 +21°C° 0 mm 2 mps 745 mmHg 86%

    28 June, Thursday

    Time Temperature Precipitation Wind Pressure Humidity
    00:00 +20°C° 0 mm 2 mps 745 mmHg 87%
    01:00 +20°C° 0 mm 1 mps 745 mmHg 87%
    02:00 +19°C° 0 mm 2 mps 745 mmHg 88%
    03:00 +19°C° 0 mm 2 mps 745 mmHg 89%
    04:00 +18°C° 0 mm 2 mps 745 mmHg 90%
    05:00 +20°C° 0 mm 2 mps 745 mmHg 88%
    06:00 +21°C° 0 mm 2 mps 745 mmHg 86%
    07:00 +23°C° 0 mm 2 mps 745 mmHg 83%
    08:00 +25°C° 0 mm 2 mps 745 mmHg 78%
    09:00 +26°C° 0 mm 2 mps 745 mmHg 73%
    10:00 +28°C° 0 mm 2 mps 745 mmHg 69%
    11:00 +29°C° 0.1 mm 2 mps 745 mmHg 65%
    12:00 +30°C° 0.1 mm 2 mps 745 mmHg 61%
    13:00 +31°C° 0.1 mm 2 mps 745 mmHg 57%
    14:00 +31°C° 0 mm 3 mps 745 mmHg 58%
    15:00 +31°C° 0 mm 3 mps 745 mmHg 60%
    16:00 +32°C° 0 mm 4 mps 745 mmHg 61%
    17:00 +30°C° 0 mm 3 mps 745 mmHg 66%
    18:00 +29°C° 0 mm 3 mps 745 mmHg 72%
    19:00 +28°C° 0 mm 3 mps 745 mmHg 77%
    20:00 +26°C° 0 mm 2 mps 745 mmHg 80%
    21:00 +25°C° 0 mm 2 mps 745 mmHg 83%
    22:00 +23°C° 0 mm 1 mps 745 mmHg 87%
    23:00 +23°C° 0 mm 1 mps 745 mmHg 87%
    Show more